When you browse on this site, cookies collect data to enhance your experience and personalize the content and advertising you see.
Visit our Privacy Policy to learn more. By continuing to use the site, you agree to this use of cookies and data.
  • In Lithuania
  • List of Countries
  • For 7 days
  • Water Temperature
  • Weather Map
  • Weather Widgets
  • user-avatar
    Login

    Hourly Weather Malanje

    Today, 17 October, Thursday

    Time Temperature Precipitation Wind Pressure Humidity
    00:00 +21°C° 0.4 mm 1 mps 665 mmHg 91%
    01:00 +19°C° 0 mm 0 mps 665 mmHg 93%
    02:00 +19°C° 1.4 mm 0 mps 665 mmHg 95%
    03:00 +18°C° 1.4 mm 0 mps 664 mmHg 96%
    04:00 +18°C° 1.4 mm 0 mps 664 mmHg 98%
    05:00 +18°C° 0.1 mm 0 mps 665 mmHg 96%
    06:00 +19°C° 0.1 mm 0 mps 665 mmHg 94%
    07:00 +20°C° 0 mm 0 mps 666 mmHg 91%
    08:00 +22°C° 0.1 mm 0 mps 666 mmHg 86%
    09:00 +25°C° 0.1 mm 1 mps 667 mmHg 80%
    10:00 +27°C° 0.1 mm 1 mps 667 mmHg 74%
    11:00 +26°C° 0.6 mm 0 mps 666 mmHg 71%
    12:00 +27°C° 0.6 mm 0 mps 666 mmHg 69%
    13:00 +28°C° 0.6 mm 0 mps 665 mmHg 66%
    14:00 +27°C° 1.6 mm 0 mps 665 mmHg 69%
    15:00 +26°C° 1.6 mm 0 mps 664 mmHg 73%
    16:00 +24°C° 1.6 mm 0 mps 663 mmHg 76%
    17:00 +23°C° 0.3 mm 0 mps 664 mmHg 80%
    18:00 +24°C° 0.3 mm 1 mps 664 mmHg 84%
    19:00 +22°C° 0.3 mm 1 mps 665 mmHg 87%
    20:00 +22°C° 0 mm 1 mps 665 mmHg 90%
    21:00 +22°C° 0 mm 1 mps 665 mmHg 92%
    22:00 +21°C° 0 mm 1 mps 665 mmHg 94%
    23:00 +21°C° 0.3 mm 1 mps 665 mmHg 95%

    Tomorrow, 18 October, Friday

    Time Temperature Precipitation Wind Pressure Humidity
    00:00 +21°C° 0.3 mm 1 mps 665 mmHg 96%
    01:00 +21°C° 0.3 mm 1 mps 664 mmHg 97%
    02:00 +21°C° 0.2 mm 1 mps 664 mmHg 97%
    03:00 +20°C° 0.2 mm 2 mps 664 mmHg 97%
    04:00 +20°C° 0.2 mm 2 mps 664 mmHg 97%
    05:00 +20°C° 0 mm 2 mps 664 mmHg 95%
    06:00 +20°C° 0 mm 2 mps 665 mmHg 94%
    07:00 +21°C° 0 mm 2 mps 665 mmHg 92%
    08:00 +23°C° 0 mm 2 mps 665 mmHg 84%
    09:00 +25°C° 0 mm 2 mps 666 mmHg 77%
    10:00 +27°C° 0 mm 1 mps 666 mmHg 69%
    11:00 +29°C° 0.1 mm 1 mps 666 mmHg 62%
    12:00 +31°C° 0.1 mm 1 mps 665 mmHg 55%
    13:00 +33°C° 0.1 mm 1 mps 665 mmHg 48%
    14:00 +31°C° 0.2 mm 1 mps 664 mmHg 54%
    15:00 +29°C° 0.2 mm 2 mps 663 mmHg 60%
    16:00 +27°C° 0.2 mm 2 mps 662 mmHg 66%
    17:00 +26°C° 0.2 mm 2 mps 663 mmHg 74%
    18:00 +24°C° 0.2 mm 2 mps 663 mmHg 82%
    19:00 +21°C° 0.2 mm 2 mps 663 mmHg 90%
    20:00 +21°C° 0 mm 2 mps 664 mmHg 91%
    21:00 +21°C° 0 mm 3 mps 664 mmHg 93%
    22:00 +20°C° 0 mm 3 mps 664 mmHg 94%
    23:00 +20°C° 0.3 mm 3 mps 664 mmHg 95%

    Day after tomorrow, 19 October, Saturday

    Time Temperature Precipitation Wind Pressure Humidity
    00:00 +20°C° 0.3 mm 2 mps 664 mmHg 95%
    01:00 +20°C° 0.3 mm 2 mps 664 mmHg 96%
    02:00 +20°C° 0 mm 2 mps 664 mmHg 95%
    03:00 +19°C° 0 mm 2 mps 664 mmHg 95%
    04:00 +19°C° 0 mm 3 mps 663 mmHg 94%
    05:00 +19°C° 0 mm 3 mps 664 mmHg 93%
    06:00 +19°C° 0 mm 3 mps 664 mmHg 92%
    07:00 +19°C° 0 mm 3 mps 665 mmHg 91%
    08:00 +21°C° 0 mm 3 mps 665 mmHg 82%
    09:00 +25°C° 0 mm 2 mps 666 mmHg 73%
    10:00 +27°C° 0 mm 2 mps 666 mmHg 64%
    11:00 +28°C° 0 mm 2 mps 666 mmHg 59%
    12:00 +30°C° 0 mm 1 mps 665 mmHg 55%
    13:00 +31°C° 0 mm 1 mps 665 mmHg 50%
    14:00 +31°C° 0 mm 1 mps 664 mmHg 51%
    15:00 +30°C° 0 mm 1 mps 664 mmHg 52%
    16:00 +29°C° 0 mm 1 mps 663 mmHg 53%
    17:00 +27°C° 0.1 mm 1 mps 663 mmHg 62%
    18:00 +25°C° 0.1 mm 2 mps 663 mmHg 71%
    19:00 +23°C° 0.1 mm 2 mps 664 mmHg 80%
    20:00 +21°C° 0.1 mm 2 mps 664 mmHg 83%
    21:00 +21°C° 0.1 mm 2 mps 664 mmHg 87%
    22:00 +20°C° 0.1 mm 2 mps 664 mmHg 90%
    23:00 +20°C° 0 mm 2 mps 664 mmHg 92%

    20 October, Sunday

    Time Temperature Precipitation Wind Pressure Humidity
    00:00 +20°C° 0 mm 2 mps 664 mmHg 93%
    01:00 +19°C° 0 mm 2 mps 664 mmHg 95%
    02:00 +19°C° 0 mm 2 mps 664 mmHg 94%
    03:00 +19°C° 0 mm 2 mps 664 mmHg 93%
    04:00 +19°C° 0 mm 3 mps 664 mmHg 92%
    05:00 +19°C° 0 mm 2 mps 664 mmHg 90%
    06:00 +19°C° 0 mm 2 mps 665 mmHg 88%
    07:00 +20°C° 0 mm 2 mps 665 mmHg 86%
    08:00 +23°C° 0 mm 2 mps 666 mmHg 79%
    09:00 +25°C° 0 mm 2 mps 666 mmHg 71%
    10:00 +27°C° 0 mm 2 mps 666 mmHg 64%
    11:00 +28°C° 0 mm 2 mps 666 mmHg 59%
    12:00 +30°C° 0 mm 1 mps 666 mmHg 55%
    13:00 +31°C° 0 mm 1 mps 665 mmHg 50%
    14:00 +30°C° 0.2 mm 1 mps 665 mmHg 53%
    15:00 +29°C° 0.2 mm 1 mps 664 mmHg 57%
    16:00 +29°C° 0.2 mm 1 mps 663 mmHg 60%
    17:00 +27°C° 0.2 mm 1 mps 663 mmHg 68%
    18:00 +24°C° 0.2 mm 2 mps 664 mmHg 76%
    19:00 +21°C° 0.2 mm 2 mps 664 mmHg 84%
    20:00 +22°C° 0.2 mm 1 mps 664 mmHg 87%
    21:00 +22°C° 0.2 mm 1 mps 664 mmHg 89%
    22:00 +21°C° 0.2 mm 1 mps 665 mmHg 91%
    23:00 +21°C° 0.2 mm 1 mps 665 mmHg 92%

    21 October, Monday

    Time Temperature Precipitation Wind Pressure Humidity
    00:00 +21°C° 0.2 mm 1 mps 664 mmHg 93%
    01:00 +20°C° 0.2 mm 1 mps 664 mmHg 94%
    02:00 +20°C° 0 mm 1 mps 664 mmHg 95%
    03:00 +18°C° 0 mm 2 mps 664 mmHg 96%
    04:00 +18°C° 0 mm 2 mps 664 mmHg 96%
    05:00 +20°C° 0 mm 1 mps 664 mmHg 94%
    06:00 +20°C° 0 mm 1 mps 665 mmHg 92%
    07:00 +20°C° 0 mm 1 mps 665 mmHg 90%
    08:00 +21°C° 0 mm 2 mps 665 mmHg 82%
    09:00 +24°C° 0 mm 2 mps 666 mmHg 74%
    10:00 +27°C° 0 mm 2 mps 666 mmHg 66%
    11:00 +28°C° 0 mm 2 mps 666 mmHg 62%
    12:00 +29°C° 0 mm 2 mps 665 mmHg 57%
    13:00 +30°C° 0 mm 1 mps 665 mmHg 53%
    14:00 +30°C° 0.1 mm 1 mps 664 mmHg 56%
    15:00 +29°C° 0.1 mm 2 mps 664 mmHg 58%
    16:00 +28°C° 0.1 mm 2 mps 663 mmHg 61%
    17:00 +27°C° 0.1 mm 2 mps 663 mmHg 68%
    18:00 +25°C° 0.1 mm 2 mps 663 mmHg 74%
    19:00 +23°C° 0.1 mm 2 mps 664 mmHg 81%
    20:00 +23°C° 0.3 mm 1 mps 664 mmHg 83%
    21:00 +22°C° 0.3 mm 1 mps 664 mmHg 85%
    22:00 +21°C° 0.3 mm 1 mps 665 mmHg 88%
    23:00 +21°C° 0.1 mm 1 mps 664 mmHg 90%

    22 October, Tuesday

    Time Temperature Precipitation Wind Pressure Humidity
    00:00 +19°C° 0.1 mm 2 mps 664 mmHg 93%
    01:00 +19°C° 0.1 mm 2 mps 663 mmHg 95%
    02:00 +19°C° 0 mm 2 mps 663 mmHg 96%
    03:00 +19°C° 0 mm 2 mps 663 mmHg 96%
    04:00 +19°C° 0 mm 2 mps 663 mmHg 96%
    05:00 +19°C° 0 mm 2 mps 664 mmHg 94%
    06:00 +19°C° 0 mm 2 mps 664 mmHg 92%
    07:00 +19°C° 0 mm 2 mps 665 mmHg 90%
    08:00 +23°C° 0 mm 2 mps 665 mmHg 80%
    09:00 +25°C° 0 mm 2 mps 666 mmHg 71%
    10:00 +27°C° 0 mm 2 mps 666 mmHg 61%
    11:00 +28°C° 0.3 mm 2 mps 665 mmHg 59%
    12:00 +29°C° 0.3 mm 2 mps 665 mmHg 56%
    13:00 +30°C° 0.3 mm 2 mps 664 mmHg 54%
    14:00 +29°C° 0.2 mm 2 mps 664 mmHg 56%
    15:00 +29°C° 0.2 mm 2 mps 663 mmHg 57%
    16:00 +29°C° 0.2 mm 2 mps 663 mmHg 59%
    17:00 +27°C° 0.1 mm 2 mps 663 mmHg 67%
    18:00 +25°C° 0.1 mm 2 mps 663 mmHg 75%
    19:00 +23°C° 0.1 mm 2 mps 663 mmHg 83%
    20:00 +21°C° 0 mm 2 mps 663 mmHg 84%
    21:00 +21°C° 0 mm 2 mps 664 mmHg 85%
    22:00 +20°C° 0 mm 2 mps 664 mmHg 86%
    23:00 +21°C° 0 mm 1 mps 664 mmHg 87%
    Show more